Time,TemperatureF,DewpointF,PressureIn,WindDirection,WindDirectionDegrees,WindSpeedMPH,WindSpeedGustMPH,Humidity,HourlyPrecipIn,Conditions,Clouds,dailyrainin,SoftwareType,DateUTC
2013-02-19 00:00:00,34.9,25.4,30.46,SE,135,0.0,0.0,68,0.00,CLR,CLR,0.00,WeatherDisplay:10.37,2013-02-19 05:00:00,
2013-02-19 00:05:00,34.9,25.7,30.46,SE,135,0.0,0.0,69,0.00,CLR,,0.00,WeatherDisplay:10.37,2013-02-19 05:05:00,
2013-02-19 00:10:00,34.9,25.7,30.46,SSE,158,0.5,0.5,69,0.00,CLR,,0.00,WeatherDisplay:10.37,2013-02-19 05:10:00,
2013-02-19 00:15:00,34.9,25.7,30.46,SSE,158,0.0,0.0,69,0.00,CLR,,0.00,WeatherDisplay:10.37,2013-02-19 05:15:00,
2013-02-19 00:20:00,34.9,25.7,30.46,SSE,158,0.0,0.0,69,0.00,CLR,,0.00,WeatherDisplay:10.37,2013-02-19 05:20:00,
2013-02-19 00:25:00,34.9,25.7,30.46,SSE,158,0.0,0.0,69,0.00,CLR,,0.00,WeatherDisplay:10.37,2013-02-19 05:25:00,
2013-02-19 00:30:00,34.9,25.7,30.45,SSE,158,0.0,0.0,69,0.00,CLR,,0.00,WeatherDisplay:10.37,2013-02-19 05:30:00,
2013-02-19 00:35:00,34.9,26.1,30.45,SSE,158,0.0,0.0,70,0.00,CLR,,0.00,WeatherDisplay:10.37,2013-02-19 05:35:00,
2013-02-19 00:40:00,34.9,26.1,30.45,SSE,158,0.0,0.0,70,0.00,CLR,,0.00,WeatherDisplay:10.37,2013-02-19 05:40:00,
2013-02-19 00:45:00,34.9,26.1,30.45,ENE,68,0.7,0.7,70,0.00,CLR,,0.00,WeatherDisplay:10.37,2013-02-19 05:45:00,
2013-02-19 00:50:00,34.9,26.1,30.44,East,90,0.7,0.7,70,0.00,CLR,,0.00,WeatherDisplay:10.37,2013-02-19 05:50:00,
2013-02-19 00:55:00,34.9,26.1,30.45,East,90,0.0,0.0,70,0.00,CLR,,0.00,WeatherDisplay:10.37,2013-02-19 05:55:00,
2013-02-19 01:00:00,34.9,26.1,30.44,East,90,0.0,0.0,70,0.00,CLR,,0.00,WeatherDisplay:10.37,2013-02-19 06:00:00,
2013-02-19 01:06:00,34.9,26.4,30.44,East,90,0.0,0.0,71,0.00,CLR,,0.00,WeatherDisplay:10.37,2013-02-19 06:06:00,
2013-02-19 01:11:00,34.9,26.4,30.44,ESE,112,0.0,0.0,71,0.00,CLR,,0.00,WeatherDisplay:10.37,2013-02-19 06:11:00,
2013-02-19 01:16:00,34.9,26.4,30.44,ESE,112,0.0,0.0,71,0.00,CLR,,0.00,WeatherDisplay:10.37,2013-02-19 06:16:00,
2013-02-19 01:21:00,34.9,26.4,30.44,ESE,112,0.0,0.0,71,0.00,CLR,,0.00,WeatherDisplay:10.37,2013-02-19 06:21:00,
2013-02-19 01:26:00,34.9,26.4,30.44,ESE,112,0.0,0.0,71,0.00,CLR,,0.00,WeatherDisplay:10.37,2013-02-19 06:26:00,
2013-02-19 01:31:00,34.9,26.4,30.43,ESE,112,0.0,0.0,71,0.00,CLR,,0.00,WeatherDisplay:10.37,2013-02-19 06:31:00,
2013-02-19 01:36:00,34.9,26.4,30.43,East,90,0.0,0.0,71,0.00,CLR,,0.00,WeatherDisplay:10.37,2013-02-19 06:36:00,
2013-02-19 01:41:00,34.9,26.4,30.43,East,90,0.0,0.0,71,0.00,CLR,,0.00,WeatherDisplay:10.37,2013-02-19 06:41:00,
2013-02-19 01:46:00,34.9,26.8,30.42,East,90,1.1,1.1,72,0.00,CLR,,0.00,WeatherDisplay:10.37,2013-02-19 06:46:00,
2013-02-19 01:51:00,34.9,26.8,30.42,NE,45,0.0,0.0,72,0.00,CLR,,0.00,WeatherDisplay:10.37,2013-02-19 06:51:00,
2013-02-19 01:56:00,34.9,27.1,30.41,East,90,1.1,1.1,73,0.00,CLR,,0.00,WeatherDisplay:10.37,2013-02-19 06:56:00,
2013-02-19 02:01:00,34.9,27.1,30.41,ENE,68,0.0,0.0,73,0.00,CLR,,0.00,WeatherDisplay:10.37,2013-02-19 07:01:00,
2013-02-19 02:06:00,34.9,27.1,30.41,ENE,68,0.0,0.0,73,0.00,CLR,,0.00,WeatherDisplay:10.37,2013-02-19 07:06:00,
2013-02-19 02:11:00,35.2,27.4,30.41,NE,45,0.0,0.2,73,0.00,CLR,,0.00,WeatherDisplay:10.37,2013-02-19 07:11:00,
2013-02-19 02:16:00,35.2,27.4,30.41,NE,45,0.0,0.0,73,0.00,CLR,,0.00,WeatherDisplay:10.37,2013-02-19 07:16:00,
2013-02-19 02:21:00,35.2,27.4,30.41,NE,45,0.0,0.0,73,0.00,CLR,,0.00,WeatherDisplay:10.37,2013-02-19 07:21:00,
2013-02-19 02:26:00,35.4,27.6,30.40,NE,45,0.0,0.0,73,0.00,CLR,,0.00,WeatherDisplay:10.37,2013-02-19 07:26:00,
2013-02-19 02:31:00,35.4,27.6,30.40,NE,45,0.0,0.0,73,0.00,CLR,,0.00,WeatherDisplay:10.37,2013-02-19 07:31:00,
2013-02-19 02:36:00,35.6,27.8,30.40,NE,45,0.0,0.0,73,0.00,CLR,,0.00,WeatherDisplay:10.37,2013-02-19 07:36:00,
2013-02-19 02:41:00,35.6,27.8,30.40,NE,45,0.0,0.0,73,0.00,CLR,,0.00,WeatherDisplay:10.37,2013-02-19 07:41:00,
2013-02-19 02:46:00,35.6,27.8,30.40,NE,45,0.0,0.0,73,0.00,CLR,,0.00,WeatherDisplay:10.37,2013-02-19 07:46:00,
2013-02-19 02:51:00,35.6,27.8,30.39,NE,45,0.0,0.0,73,0.00,CLR,,0.00,WeatherDisplay:10.37,2013-02-19 07:51:00,
2013-02-19 02:56:00,35.6,27.8,30.40,WSW,248,1.1,1.1,73,0.00,CLR,,0.00,WeatherDisplay:10.37,2013-02-19 07:56:00,
2013-02-19 03:01:00,35.6,27.8,30.39,WSW,248,0.0,0.0,73,0.00,CLR,,0.00,WeatherDisplay:10.37,2013-02-19 08:01:00,
2013-02-19 03:06:00,35.6,27.8,30.39,WSW,248,0.0,0.0,73,0.00,CLR,,0.00,WeatherDisplay:10.37,2013-02-19 08:06:00,
2013-02-19 03:11:00,35.6,27.8,30.39,WSW,248,0.0,0.0,73,0.00,CLR,,0.00,WeatherDisplay:10.37,2013-02-19 08:11:00,
2013-02-19 03:16:00,35.6,27.8,30.38,WSW,248,0.0,0.0,73,0.00,CLR,,0.00,WeatherDisplay:10.37,2013-02-19 08:16:00,
2013-02-19 03:21:00,35.6,27.8,30.38,WSW,248,0.0,0.0,73,0.00,CLR,,0.00,WeatherDisplay:10.37,2013-02-19 08:21:00,
2013-02-19 03:26:00,35.8,28.0,30.38,North,0,1.1,1.1,73,0.00,CLR,,0.00,WeatherDisplay:10.37,2013-02-19 08:26:00,
2013-02-19 03:31:00,35.8,28.0,30.38,North,0,0.0,0.0,73,0.00,CLR,,0.00,WeatherDisplay:10.37,2013-02-19 08:31:00,
2013-02-19 03:36:00,35.8,28.0,30.38,North,0,0.0,0.0,73,0.00,CLR,,0.00,WeatherDisplay:10.37,2013-02-19 08:36:00,
2013-02-19 03:41:00,35.8,28.0,30.37,North,0,0.0,0.0,73,0.00,CLR,,0.00,WeatherDisplay:10.37,2013-02-19 08:41:00,
2013-02-19 03:46:00,35.8,28.0,30.37,North,0,0.0,0.0,73,0.00,CLR,,0.00,WeatherDisplay:10.37,2013-02-19 08:46:00,
2013-02-19 03:51:00,36.0,28.1,30.36,North,0,0.0,0.0,73,0.00,CLR,,0.00,WeatherDisplay:10.37,2013-02-19 08:51:00,
2013-02-19 03:56:00,36.0,28.1,30.36,North,0,0.0,0.0,73,0.00,CLR,,0.00,WeatherDisplay:10.37,2013-02-19 08:56:00,
2013-02-19 04:01:00,36.0,28.1,30.36,North,0,0.0,0.0,73,0.00,CLR,,0.00,WeatherDisplay:10.37,2013-02-19 09:01:00,
2013-02-19 04:06:00,36.0,28.1,30.36,North,0,0.0,0.0,73,0.00,CLR,,0.00,WeatherDisplay:10.37,2013-02-19 09:06:00,
2013-02-19 04:11:00,36.0,28.5,30.36,North,0,0.0,0.0,74,0.00,CLR,,0.00,WeatherDisplay:10.37,2013-02-19 09:11:00,
2013-02-19 04:16:00,36.0,28.5,30.36,North,0,0.0,0.0,74,0.00,CLR,,0.00,WeatherDisplay:10.37,2013-02-19 09:16:00,
2013-02-19 04:21:00,36.0,28.5,30.36,North,0,0.0,0.0,74,0.00,CLR,,0.00,WeatherDisplay:10.37,2013-02-19 09:21:00,
2013-02-19 04:26:00,36.0,28.5,30.36,North,0,0.0,0.0,74,0.00,CLR,,0.00,WeatherDisplay:10.37,2013-02-19 09:26:00,
2013-02-19 04:31:00,36.0,28.5,30.36,North,0,0.0,0.0,74,0.00,CLR,,0.00,WeatherDisplay:10.37,2013-02-19 09:31:00,
2013-02-19 04:36:00,36.1,28.6,30.36,North,0,0.0,0.0,74,0.00,CLR,,0.00,WeatherDisplay:10.37,2013-02-19 09:36:00,
2013-02-19 04:41:00,36.1,28.6,30.35,North,0,0.0,0.0,74,0.00,CLR,,0.00,WeatherDisplay:10.37,2013-02-19 09:41:00,
2013-02-19 04:46:00,36.1,28.6,30.35,ENE,68,1.1,1.1,74,0.00,CLR,,0.00,WeatherDisplay:10.37,2013-02-19 09:46:00,
2013-02-19 04:51:00,36.3,29.2,30.34,SSE,158,0.0,0.0,75,0.00,CLR,,0.00,WeatherDisplay:10.37,2013-02-19 09:51:00,
2013-02-19 04:56:00,36.3,29.2,30.34,SSE,158,0.0,0.0,75,0.00,CLR,,0.00,WeatherDisplay:10.37,2013-02-19 09:56:00,
2013-02-19 05:01:00,36.3,29.2,30.34,SSE,158,0.0,0.0,75,0.00,FEW,,0.00,WeatherDisplay:10.37,2013-02-19 10:01:00,
2013-02-19 05:06:00,36.3,29.2,30.34,SSE,158,0.0,0.0,75,0.00,FEW,,0.00,WeatherDisplay:10.37,2013-02-19 10:06:00,
2013-02-19 05:11:00,36.5,29.7,30.34,SSE,158,0.0,0.0,76,0.00,FEW,,0.00,WeatherDisplay:10.37,2013-02-19 10:11:00,
2013-02-19 05:16:00,36.7,29.8,30.34,SSE,158,0.0,0.0,76,0.00,FEW,,0.00,WeatherDisplay:10.37,2013-02-19 10:16:00,
2013-02-19 05:21:00,36.7,29.8,30.34,SSE,158,0.0,0.0,76,0.00,FEW,,0.00,WeatherDisplay:10.37,2013-02-19 10:21:00,
2013-02-19 05:26:00,36.7,30.1,30.34,NE,45,0.0,0.0,77,0.00,FEW,,0.00,WeatherDisplay:10.37,2013-02-19 10:26:00,
2013-02-19 05:31:00,36.9,30.0,30.34,SSE,158,0.0,0.0,76,0.00,FEW,,0.00,WeatherDisplay:10.37,2013-02-19 10:31:00,
2013-02-19 05:36:00,36.9,30.0,30.34,ESE,112,0.0,0.0,76,0.00,FEW,,0.00,WeatherDisplay:10.37,2013-02-19 10:36:00,
2013-02-19 05:41:00,36.9,30.3,30.34,SE,135,0.0,0.0,77,0.00,FEW,,0.00,WeatherDisplay:10.37,2013-02-19 10:41:00,
2013-02-19 05:46:00,37.0,30.5,30.34,SE,135,0.0,0.0,77,0.00,FEW,,0.00,WeatherDisplay:10.37,2013-02-19 10:46:00,
2013-02-19 05:51:00,37.2,30.7,30.33,SE,135,0.0,0.0,77,0.00,FEW,,0.00,WeatherDisplay:10.37,2013-02-19 10:51:00,
2013-02-19 05:56:00,37.4,30.8,30.32,ENE,68,0.0,0.0,77,0.00,FEW,,0.00,WeatherDisplay:10.37,2013-02-19 10:56:00,
2013-02-19 06:01:00,37.4,30.8,30.32,South,180,0.0,0.0,77,0.00,FEW,,0.00,WeatherDisplay:10.37,2013-02-19 11:01:00,
2013-02-19 06:06:00,37.6,31.0,30.31,SSE,158,0.5,0.5,77,0.00,FEW,,0.00,WeatherDisplay:10.37,2013-02-19 11:06:00,
2013-02-19 06:11:00,37.8,31.2,30.31,NE,45,0.0,0.0,77,0.00,CLR,,0.00,WeatherDisplay:10.37,2013-02-19 11:11:00,
2013-02-19 06:16:00,37.8,31.5,30.31,ENE,68,0.0,0.0,78,0.00,CLR,,0.00,WeatherDisplay:10.37,2013-02-19 11:16:00,
2013-02-19 06:21:00,37.9,31.7,30.31,ENE,68,0.0,0.0,78,0.00,CLR,,0.00,WeatherDisplay:10.37,2013-02-19 11:21:00,
2013-02-19 06:26:00,38.1,31.9,30.31,South,180,0.0,0.0,78,0.00,CLR,,0.00,WeatherDisplay:10.37,2013-02-19 11:26:00,
2013-02-19 06:31:00,38.3,32.0,30.31,SSE,158,1.1,0.0,78,0.00,CLR,,0.00,WeatherDisplay:10.37,2013-02-19 11:31:00,
2013-02-19 06:36:00,38.3,32.0,30.31,SW,225,1.4,1.4,78,0.00,CLR,,0.00,WeatherDisplay:10.37,2013-02-19 11:36:00,
2013-02-19 06:41:00,38.5,32.5,30.31,SE,135,1.1,1.1,79,0.00,CLR,,0.00,WeatherDisplay:10.37,2013-02-19 11:41:00,
2013-02-19 06:46:00,38.5,32.5,30.31,ENE,68,0.5,0.5,79,0.00,CLR,,0.00,WeatherDisplay:10.37,2013-02-19 11:46:00,
2013-02-19 06:51:00,38.7,32.7,30.31,ENE,68,0.0,0.0,79,0.00,CLR,,0.00,WeatherDisplay:10.37,2013-02-19 11:51:00,
2013-02-19 06:56:00,38.8,32.9,30.31,South,180,0.0,0.0,79,0.00,CLR,,0.00,WeatherDisplay:10.37,2013-02-19 11:56:00,
2013-02-19 07:01:00,38.8,32.9,30.31,South,180,0.0,0.0,79,0.00,CLR,,0.00,WeatherDisplay:10.37,2013-02-19 12:01:00,
2013-02-19 07:06:00,39.0,33.1,30.31,South,180,0.0,0.0,79,0.00,CLR,,0.00,WeatherDisplay:10.37,2013-02-19 12:06:00,
2013-02-19 07:11:00,39.2,33.2,30.31,South,180,0.0,0.0,79,0.00,CLR,,0.00,WeatherDisplay:10.37,2013-02-19 12:11:00,
2013-02-19 07:16:00,39.4,33.4,30.31,South,180,0.0,0.0,79,0.00,CLR,,0.00,WeatherDisplay:10.37,2013-02-19 12:16:00,
2013-02-19 07:21:00,39.7,33.8,30.31,South,180,0.5,0.5,79,0.00,CLR,,0.00,WeatherDisplay:10.37,2013-02-19 12:21:00,
2013-02-19 07:26:00,39.9,34.2,30.31,South,180,1.1,0.0,80,0.00,CLR,,0.00,WeatherDisplay:10.37,2013-02-19 12:26:00,
2013-02-19 07:31:00,40.3,34.9,30.31,South,180,0.0,0.0,81,0.00,CLR,,0.00,WeatherDisplay:10.37,2013-02-19 12:31:00,
2013-02-19 07:36:00,40.6,35.3,30.31,South,180,0.0,0.0,81,0.00,CLR,,0.00,WeatherDisplay:10.37,2013-02-19 12:36:00,
2013-02-19 07:41:00,41.2,35.8,30.31,South,180,0.2,0.2,81,0.00,CLR,,0.00,WeatherDisplay:10.37,2013-02-19 12:41:00,
2013-02-19 07:46:00,41.4,36.0,30.31,South,180,0.0,0.0,81,0.00,CLR,,0.00,WeatherDisplay:10.37,2013-02-19 12:46:00,
2013-02-19 07:51:00,41.9,36.5,30.31,South,180,0.0,0.0,81,0.00,CLR,,0.00,WeatherDisplay:10.37,2013-02-19 12:51:00,
2013-02-19 07:56:00,42.3,36.8,30.31,South,180,0.0,0.0,81,0.00,CLR,,0.00,WeatherDisplay:10.37,2013-02-19 12:56:00,
2013-02-19 08:01:00,42.8,37.4,30.31,South,180,0.0,0.0,81,0.00,CLR,,0.00,WeatherDisplay:10.37,2013-02-19 13:01:00,
2013-02-19 08:06:00,43.2,38.0,30.31,SE,135,0.0,0.0,82,0.00,CLR,,0.00,WeatherDisplay:10.37,2013-02-19 13:06:00,
2013-02-19 08:11:00,43.9,39.1,30.31,SE,135,0.0,0.0,83,0.00,SCT,,0.00,WeatherDisplay:10.37,2013-02-19 13:11:00,
2013-02-19 08:16:00,44.4,39.6,30.31,SE,135,0.0,0.0,83,0.00,SCT,,0.00,WeatherDisplay:10.37,2013-02-19 13:16:00,
2013-02-19 08:21:00,45.0,40.1,30.31,ESE,112,0.0,0.0,83,0.00,SCT,,0.00,WeatherDisplay:10.37,2013-02-19 13:21:00,
2013-02-19 08:26:00,45.7,41.1,30.31,ESE,112,0.0,0.0,84,0.00,SCT,,0.00,WeatherDisplay:10.37,2013-02-19 13:26:00,
2013-02-19 08:31:00,46.4,41.8,30.31,ESE,112,0.0,0.0,84,0.00,SCT,,0.00,WeatherDisplay:10.37,2013-02-19 13:31:00,
2013-02-19 08:36:00,46.9,42.4,30.32,SE,135,0.0,0.0,84,0.00,SCT,,0.00,WeatherDisplay:10.37,2013-02-19 13:36:00,
2013-02-19 08:41:00,47.8,43.5,30.31,ESE,112,1.1,1.1,85,0.00,SCT,,0.00,WeatherDisplay:10.37,2013-02-19 13:41:00,
2013-02-19 08:46:00,48.6,44.3,30.31,SE,135,1.1,1.1,85,0.00,SCT,,0.00,WeatherDisplay:10.37,2013-02-19 13:46:00,
2013-02-19 08:51:00,49.6,45.6,30.31,East,90,0.9,0.9,86,0.00,SCT,,0.00,WeatherDisplay:10.37,2013-02-19 13:51:00,
2013-02-19 08:56:00,50.7,46.4,30.31,SE,135,2.3,2.3,85,0.00,SCT,,0.00,WeatherDisplay:10.37,2013-02-19 13:56:00,
2013-02-19 09:01:00,51.3,46.6,30.31,SSW,202,1.1,1.1,84,0.00,CLR,,0.00,WeatherDisplay:10.37,2013-02-19 14:01:00,
2013-02-19 09:06:00,52.0,47.0,30.30,SSW,202,1.6,1.6,83,0.00,CLR,,0.00,WeatherDisplay:10.37,2013-02-19 14:06:00,
2013-02-19 09:11:00,52.7,47.4,30.30,SSE,158,1.1,1.1,82,0.00,CLR,,0.00,WeatherDisplay:10.37,2013-02-19 14:11:00,
2013-02-19 09:16:00,53.4,47.7,30.29,SSE,158,1.1,1.1,81,0.00,CLR,,0.00,WeatherDisplay:10.37,2013-02-19 14:16:00,
2013-02-19 09:22:00,54.0,47.9,30.30,South,180,1.1,1.1,80,0.00,CLR,,0.00,WeatherDisplay:10.37,2013-02-19 14:22:00,
2013-02-19 09:27:00,54.5,48.5,30.29,South,180,0.5,0.5,80,0.00,CLR,,0.00,WeatherDisplay:10.37,2013-02-19 14:27:00,
2013-02-19 09:32:00,55.0,48.6,30.29,SSE,158,1.1,1.1,79,0.00,CLR,,0.00,WeatherDisplay:10.37,2013-02-19 14:32:00,
2013-02-19 09:37:00,55.6,49.2,30.29,SSW,202,1.1,1.1,79,0.00,CLR,,0.00,WeatherDisplay:10.37,2013-02-19 14:37:00,
2013-02-19 09:42:00,55.9,49.5,30.29,SSW,202,2.3,2.3,79,0.00,CLR,,0.00,WeatherDisplay:10.37,2013-02-19 14:42:00,
2013-02-19 09:47:00,56.5,50.0,30.29,South,180,2.3,2.3,79,0.00,CLR,,0.00,WeatherDisplay:10.37,2013-02-19 14:47:00,
2013-02-19 09:52:00,57.0,50.6,30.29,SSE,158,2.4,2.4,79,0.00,CLR,,0.00,WeatherDisplay:10.37,2013-02-19 14:52:00,
2013-02-19 09:57:00,57.6,50.8,30.29,SSW,202,1.4,1.4,78,0.00,CLR,,0.00,WeatherDisplay:10.37,2013-02-19 14:57:00,
2013-02-19 10:02:00,58.1,51.6,30.29,South,180,2.4,2.4,79,0.00,SCT,,0.00,WeatherDisplay:10.37,2013-02-19 15:02:00,
2013-02-19 10:07:00,58.6,51.8,30.28,South,180,2.3,2.3,78,0.00,SCT,,0.00,WeatherDisplay:10.37,2013-02-19 15:07:00,
2013-02-19 10:12:00,59.4,52.1,30.28,SSW,202,4.6,4.6,77,0.00,SCT,,0.00,WeatherDisplay:10.37,2013-02-19 15:12:00,
2013-02-19 10:17:00,59.9,52.3,30.28,West,270,4.7,4.7,76,0.00,SCT,,0.00,WeatherDisplay:10.37,2013-02-19 15:17:00,
2013-02-19 10:22:00,60.4,52.5,30.28,SW,225,3.5,3.5,75,0.00,SCT,,0.00,WeatherDisplay:10.37,2013-02-19 15:22:00,
2013-02-19 10:27:00,60.8,52.5,30.27,SW,225,3.5,3.5,74,0.00,SCT,,0.00,WeatherDisplay:10.37,2013-02-19 15:27:00,
2013-02-19 10:32:00,61.2,52.4,30.27,SW,225,2.3,2.3,73,0.00,SCT,,0.00,WeatherDisplay:10.37,2013-02-19 15:32:00,
2013-02-19 10:37:00,61.5,52.8,30.27,South,180,2.3,2.3,73,0.00,SCT,,0.00,WeatherDisplay:10.37,2013-02-19 15:37:00,
2013-02-19 10:42:00,61.9,52.8,30.27,South,180,2.4,2.4,72,0.00,SCT,,0.00,WeatherDisplay:10.37,2013-02-19 15:42:00,
2013-02-19 10:47:00,62.2,53.5,30.27,SSW,202,4.5,4.5,73,0.00,SCT,,0.00,WeatherDisplay:10.37,2013-02-19 15:47:00,
2013-02-19 10:52:00,62.6,53.4,30.26,South,180,2.3,2.3,72,0.00,SCT,,0.00,WeatherDisplay:10.37,2013-02-19 15:52:00,
2013-02-19 10:57:00,63.0,53.8,30.26,SSE,158,2.4,2.4,72,0.00,SCT,,0.00,WeatherDisplay:10.37,2013-02-19 15:57:00,
2013-02-19 11:02:00,63.3,53.4,30.26,SSE,158,3.5,3.5,70,0.00,SCT,,0.00,WeatherDisplay:10.37,2013-02-19 16:02:00,
2013-02-19 11:07:00,63.5,53.5,30.25,SW,225,3.5,3.5,70,0.00,SCT,,0.00,WeatherDisplay:10.37,2013-02-19 16:07:00,
2013-02-19 11:12:00,63.7,53.3,30.25,South,180,4.6,4.6,69,0.00,CLR,,0.00,WeatherDisplay:10.37,2013-02-19 16:12:00,
2013-02-19 11:17:00,64.0,53.7,30.24,SSW,202,4.6,4.6,69,0.00,CLR,,0.00,WeatherDisplay:10.37,2013-02-19 16:17:00,
2013-02-19 11:22:00,64.2,53.8,30.23,South,180,2.3,2.3,69,0.00,CLR,,0.00,WeatherDisplay:10.37,2013-02-19 16:22:00,
2013-02-19 11:27:00,64.6,54.2,30.23,SW,225,2.3,2.3,69,0.00,CLR,,0.00,WeatherDisplay:10.37,2013-02-19 16:27:00,
2013-02-19 11:32:00,64.8,53.9,30.23,South,180,4.6,4.6,68,0.00,CLR,,0.00,WeatherDisplay:10.37,2013-02-19 16:32:00,
2013-02-19 11:37:00,64.9,54.1,30.23,SSW,202,2.3,2.3,68,0.00,CLR,,0.00,WeatherDisplay:10.37,2013-02-19 16:37:00,
2013-02-19 11:42:00,64.8,53.5,30.23,SW,225,4.6,4.6,67,0.00,CLR,,0.00,WeatherDisplay:10.37,2013-02-19 16:42:00,
2013-02-19 11:47:00,64.9,53.7,30.23,SSW,202,4.6,4.6,67,0.00,CLR,,0.00,WeatherDisplay:10.37,2013-02-19 16:47:00,
2013-02-19 11:52:00,64.8,53.5,30.23,West,270,4.6,4.6,67,0.00,CLR,,0.00,WeatherDisplay:10.37,2013-02-19 16:52:00,
2013-02-19 11:57:00,64.4,53.2,30.23,SW,225,8.1,8.1,67,0.00,CLR,,0.00,WeatherDisplay:10.37,2013-02-19 16:57:00,
2013-02-19 12:02:00,63.9,52.7,30.23,West,270,8.1,8.1,67,0.00,CLR,,0.00,WeatherDisplay:10.37,2013-02-19 17:02:00,
2013-02-19 12:07:00,63.5,52.7,30.23,SSE,158,6.9,6.9,68,0.00,CLR,,0.00,WeatherDisplay:10.37,2013-02-19 17:07:00,
2013-02-19 12:12:00,63.3,52.6,30.23,SSW,202,9.2,9.2,68,0.00,CLR,,0.00,WeatherDisplay:10.37,2013-02-19 17:12:00,
2013-02-19 12:17:00,63.0,52.2,30.23,SW,225,3.8,3.8,68,0.00,-RA,,0.00,WeatherDisplay:10.37,2013-02-19 17:17:00,
2013-02-19 12:22:00,62.6,51.9,30.22,SW,225,3.5,3.5,68,0.00,-RA,,0.00,WeatherDisplay:10.37,2013-02-19 17:22:00,
2013-02-19 12:27:00,62.6,51.9,30.21,SW,225,4.6,4.6,68,0.00,-RA,,0.00,WeatherDisplay:10.37,2013-02-19 17:27:00,
2013-02-19 12:32:00,62.6,51.5,30.21,WSW,248,5.8,5.8,67,0.00,-RA,,0.00,WeatherDisplay:10.37,2013-02-19 17:32:00,
2013-02-19 12:37:00,62.6,51.5,30.21,SE,135,4.6,4.6,67,0.00,-RA,,0.00,WeatherDisplay:10.37,2013-02-19 17:37:00,
2013-02-19 12:42:00,62.6,51.5,30.21,SE,135,3.6,3.6,67,0.00,-RA,,0.00,WeatherDisplay:10.37,2013-02-19 17:42:00,
2013-02-19 12:47:00,62.4,51.7,30.20,SSE,158,2.9,2.9,68,0.00,-RA,,0.00,WeatherDisplay:10.37,2013-02-19 17:47:00,
2013-02-19 12:52:00,62.2,51.1,30.20,SSW,202,5.8,5.8,67,0.00,-RA,,0.00,WeatherDisplay:10.37,2013-02-19 17:52:00,
2013-02-19 12:57:00,61.9,51.2,30.19,SW,225,5.8,5.8,68,0.00,-RA,,0.00,WeatherDisplay:10.37,2013-02-19 17:57:00,
2013-02-19 13:02:00,61.7,51.0,30.19,SSW,202,3.8,3.8,68,0.00,-RA,,0.00,WeatherDisplay:10.37,2013-02-19 18:02:00,
2013-02-19 13:07:00,61.5,51.3,30.18,South,180,3.8,3.8,69,0.00,-RA,,0.00,WeatherDisplay:10.37,2013-02-19 18:07:00,
2013-02-19 13:12:00,61.5,51.3,30.18,SE,135,6.9,6.9,69,0.00,-RA,,0.00,WeatherDisplay:10.37,2013-02-19 18:12:00,
2013-02-19 13:17:00,61.5,51.3,30.17,SSW,202,4.6,4.6,69,0.00,-RA,,0.00,WeatherDisplay:10.37,2013-02-19 18:17:00,
2013-02-19 13:22:00,61.3,51.1,30.16,SSW,202,5.8,5.8,69,0.00,-RA,,0.00,WeatherDisplay:10.37,2013-02-19 18:22:00,
2013-02-19 13:27:00,61.2,50.9,30.17,SSW,202,4.6,4.6,69,0.00,-RA,,0.00,WeatherDisplay:10.37,2013-02-19 18:27:00,
2013-02-19 13:32:00,61.2,50.9,30.16,South,180,3.5,3.5,69,0.00,-RA,,0.00,WeatherDisplay:10.37,2013-02-19 18:32:00,
2013-02-19 13:37:00,61.2,50.9,30.16,SSW,202,4.6,4.6,69,0.00,-RA,,0.00,WeatherDisplay:10.37,2013-02-19 18:37:00,
2013-02-19 13:42:00,61.3,51.5,30.15,SSW,202,5.8,5.8,70,0.00,-RA,,0.00,WeatherDisplay:10.37,2013-02-19 18:42:00,
2013-02-19 13:47:00,61.5,51.6,30.15,SSW,202,4.6,4.6,70,0.00,-RA,,0.00,WeatherDisplay:10.37,2013-02-19 18:47:00,
2013-02-19 13:52:00,61.9,52.0,30.15,SSW,202,4.6,4.6,70,0.00,-RA,,0.00,WeatherDisplay:10.37,2013-02-19 18:52:00,
2013-02-19 13:57:00,62.1,52.2,30.14,WSW,248,5.8,5.8,70,0.00,-RA,,0.00,WeatherDisplay:10.37,2013-02-19 18:57:00,
2013-02-19 14:02:00,62.4,52.5,30.14,ESE,112,5.8,5.8,70,0.00,-RA,,0.00,WeatherDisplay:10.37,2013-02-19 19:02:00,
2013-02-19 14:07:00,62.8,52.5,30.14,SSW,202,4.6,4.6,69,0.00,-RA,,0.00,WeatherDisplay:10.37,2013-02-19 19:07:00,
2013-02-19 14:12:00,63.0,52.6,30.14,SSE,158,5.8,5.8,69,0.00,-RA,,0.00,WeatherDisplay:10.37,2013-02-19 19:12:00,
2013-02-19 14:17:00,63.0,52.2,30.13,West,270,2.9,2.9,68,0.00,-RA,,0.00,WeatherDisplay:10.37,2013-02-19 19:17:00,
2013-02-19 14:22:00,63.0,52.2,30.13,SSW,202,5.8,5.8,68,0.00,-RA,,0.00,WeatherDisplay:10.37,2013-02-19 19:22:00,
2013-02-19 14:27:00,62.8,52.1,30.13,West,270,4.6,4.6,68,0.00,-RA,,0.00,WeatherDisplay:10.37,2013-02-19 19:27:00,
2013-02-19 14:32:00,63.0,52.2,30.13,SW,225,4.6,4.6,68,0.00,-RA,,0.00,WeatherDisplay:10.37,2013-02-19 19:32:00,
2013-02-19 14:37:00,63.0,52.2,30.13,WSW,248,5.8,5.9,68,0.00,-RA,,0.00,WeatherDisplay:10.37,2013-02-19 19:37:00,
2013-02-19 14:42:00,62.8,52.1,30.12,SW,225,6.9,6.9,68,0.00,-RA,,0.00,WeatherDisplay:10.37,2013-02-19 19:42:00,
2013-02-19 14:47:00,62.8,52.1,30.12,SW,225,6.2,6.2,68,0.00,-RA,,0.00,WeatherDisplay:10.37,2013-02-19 19:47:00,
2013-02-19 14:52:00,62.8,52.1,30.13,WSW,248,6.2,6.2,68,0.00,-RA,,0.00,WeatherDisplay:10.37,2013-02-19 19:52:00,
2013-02-19 14:57:00,62.8,51.7,30.12,SSW,202,8.1,8.1,67,0.00,-RA,,0.00,WeatherDisplay:10.37,2013-02-19 19:57:00,
2013-02-19 15:02:00,62.8,51.7,30.11,SW,225,10.4,10.4,67,0.00,-RA,,0.00,WeatherDisplay:10.37,2013-02-19 20:02:00,
2013-02-19 15:07:00,62.6,51.5,30.11,WSW,248,5.8,5.8,67,0.00,-RA,,0.00,WeatherDisplay:10.37,2013-02-19 20:07:00,
2013-02-19 15:12:00,62.6,51.5,30.10,SSW,202,3.6,3.6,67,0.00,OVC,,0.00,WeatherDisplay:10.37,2013-02-19 20:12:00,
2013-02-19 15:17:00,62.8,51.7,30.10,SW,225,2.9,2.9,67,0.00,OVC,,0.00,WeatherDisplay:10.37,2013-02-19 20:17:00,
2013-02-19 15:22:00,63.0,51.8,30.11,WSW,248,6.9,6.9,67,0.00,OVC,,0.00,WeatherDisplay:10.37,2013-02-19 20:22:00,
2013-02-19 15:27:00,63.0,51.8,30.11,ESE,112,7.6,7.6,67,0.00,OVC,,0.00,WeatherDisplay:10.37,2013-02-19 20:27:00,
2013-02-19 15:32:00,63.0,51.8,30.11,SSW,202,6.0,6.0,67,0.00,OVC,,0.00,WeatherDisplay:10.37,2013-02-19 20:32:00,
2013-02-19 15:37:00,63.0,51.4,30.11,SW,225,4.9,4.9,66,0.00,OVC,,0.00,WeatherDisplay:10.37,2013-02-19 20:37:00,
2013-02-19 15:42:00,63.1,51.6,30.11,WSW,248,4.6,4.6,66,0.00,OVC,,0.00,WeatherDisplay:10.37,2013-02-19 20:42:00,
2013-02-19 15:48:00,63.0,51.4,30.10,SW,225,6.9,6.9,66,0.00,OVC,,0.00,WeatherDisplay:10.37,2013-02-19 20:48:00,
2013-02-19 15:53:00,63.0,51.8,30.10,WSW,248,5.6,5.6,67,0.00,OVC,,0.00,WeatherDisplay:10.37,2013-02-19 20:53:00,
2013-02-19 15:58:00,62.8,51.7,30.10,SW,225,5.2,5.2,67,0.00,OVC,,0.00,WeatherDisplay:10.37,2013-02-19 20:58:00,
2013-02-19 16:03:00,62.6,51.5,30.10,SW,225,4.6,4.6,67,0.00,OVC,,0.00,WeatherDisplay:10.37,2013-02-19 21:03:00,
2013-02-19 16:08:00,62.4,51.3,30.10,SW,225,2.3,5.4,67,0.00,OVC,,0.00,WeatherDisplay:10.37,2013-02-19 21:08:00,
2013-02-19 16:13:00,62.2,51.1,30.09,SSW,202,6.9,6.9,67,0.00,-RA,,0.00,WeatherDisplay:10.37,2013-02-19 21:13:00,
2013-02-19 16:18:00,62.1,51.0,30.09,East,90,5.9,5.9,67,0.00,-RA,,0.00,WeatherDisplay:10.37,2013-02-19 21:18:00,
2013-02-19 16:23:00,61.7,50.6,30.09,NW,315,5.8,5.8,67,0.00,-RA,,0.00,WeatherDisplay:10.37,2013-02-19 21:23:00,
2013-02-19 16:28:00,61.5,50.5,30.09,SW,225,4.6,4.6,67,0.00,-RA,,0.00,WeatherDisplay:10.37,2013-02-19 21:28:00,
2013-02-19 16:33:00,61.3,50.7,30.09,South,180,9.2,9.2,68,0.00,-RA,,0.00,WeatherDisplay:10.37,2013-02-19 21:33:00,
2013-02-19 16:38:00,61.2,50.5,30.09,SW,225,8.1,8.1,68,0.00,-RA,,0.00,WeatherDisplay:10.37,2013-02-19 21:38:00,
2013-02-19 16:43:00,61.2,50.5,30.09,SW,225,4.6,4.6,68,0.00,-RA,,0.00,WeatherDisplay:10.37,2013-02-19 21:43:00,
2013-02-19 16:48:00,61.0,49.9,30.09,WNW,292,8.3,8.3,67,0.00,-RA,,0.00,WeatherDisplay:10.37,2013-02-19 21:48:00,
2013-02-19 16:53:00,60.8,49.8,30.10,SSW,202,8.3,8.3,67,0.00,-RA,,0.00,WeatherDisplay:10.37,2013-02-19 21:53:00,
2013-02-19 16:58:00,60.4,49.8,30.10,South,180,5.8,5.8,68,0.00,-RA,,0.00,WeatherDisplay:10.37,2013-02-19 21:58:00,
2013-02-19 17:03:00,60.4,49.8,30.10,SW,225,8.3,8.3,68,0.00,OVC,,0.00,WeatherDisplay:10.37,2013-02-19 22:03:00,
2013-02-19 17:08:00,60.1,49.5,30.10,SW,225,8.1,8.1,68,0.00,OVC,,0.00,WeatherDisplay:10.37,2013-02-19 22:08:00,
2013-02-19 17:13:00,60.1,49.5,30.10,SW,225,10.4,10.4,68,0.00,OVC,,0.00,WeatherDisplay:10.37,2013-02-19 22:13:00,
2013-02-19 17:18:00,59.7,49.5,30.10,WSW,248,12.7,12.7,69,0.00,OVC,,0.00,WeatherDisplay:10.37,2013-02-19 22:18:00,
2013-02-19 17:23:00,59.4,49.6,30.10,SW,225,6.9,6.9,70,0.00,OVC,,0.00,WeatherDisplay:10.37,2013-02-19 22:23:00,
2013-02-19 17:28:00,59.0,49.2,30.10,SSW,202,9.2,9.2,70,0.00,OVC,,0.00,WeatherDisplay:10.37,2013-02-19 22:28:00,
2013-02-19 17:33:00,58.6,49.3,30.10,SE,135,8.1,8.1,71,0.00,OVC,,0.00,WeatherDisplay:10.37,2013-02-19 22:33:00,
2013-02-19 17:38:00,58.3,49.7,30.10,SSW,202,13.0,13.0,73,0.00,OVC,,0.00,WeatherDisplay:10.37,2013-02-19 22:38:00,
2013-02-19 17:43:00,57.9,49.3,30.09,SW,225,5.8,5.8,73,0.00,-RA,,0.00,WeatherDisplay:10.37,2013-02-19 22:43:00,
2013-02-19 17:48:00,57.7,49.5,30.10,WSW,248,5.8,5.8,74,0.00,-RA,,0.00,WeatherDisplay:10.37,2013-02-19 22:48:00,
2013-02-19 17:53:00,57.7,49.9,30.09,SW,225,8.1,8.1,75,0.00,-RA,,0.00,WeatherDisplay:10.37,2013-02-19 22:53:00,
2013-02-19 17:58:00,57.6,49.7,30.09,SSE,158,4.6,4.6,75,0.00,-RA,,0.00,WeatherDisplay:10.37,2013-02-19 22:58:00,
2013-02-19 18:03:00,57.6,50.0,30.09,SW,225,7.1,7.1,76,0.00,OVC,,0.00,WeatherDisplay:10.37,2013-02-19 23:03:00,
2013-02-19 18:08:00,57.6,50.4,30.09,SW,225,8.1,8.1,77,0.00,OVC,,0.00,WeatherDisplay:10.37,2013-02-19 23:08:00,
2013-02-19 18:13:00,57.6,50.8,30.09,SW,225,6.9,6.9,78,0.00,OVC,,0.00,WeatherDisplay:10.37,2013-02-19 23:13:00,
2013-02-19 18:18:00,57.6,51.1,30.09,SW,225,10.5,10.5,79,0.00,OVC,,0.00,WeatherDisplay:10.37,2013-02-19 23:18:00,
2013-02-19 18:23:00,57.6,51.1,30.09,SSW,202,8.1,8.1,79,0.00,OVC,,0.00,WeatherDisplay:10.37,2013-02-19 23:23:00,
2013-02-19 18:28:00,57.7,51.3,30.09,SW,225,10.4,10.4,79,0.00,OVC,,0.00,WeatherDisplay:10.37,2013-02-19 23:28:00,
2013-02-19 18:33:00,57.7,51.3,30.10,SSW,202,11.5,11.5,79,0.00,OVC,,0.00,WeatherDisplay:10.37,2013-02-19 23:33:00,
2013-02-19 18:38:00,57.9,51.4,30.09,WSW,248,10.4,10.4,79,0.00,OVC,,0.00,WeatherDisplay:10.37,2013-02-19 23:38:00,
2013-02-19 18:43:00,57.9,51.4,30.09,West,270,11.5,11.5,79,0.00,OVC,,0.00,WeatherDisplay:10.37,2013-02-19 23:43:00,
2013-02-19 18:48:00,57.9,51.4,30.08,SW,225,6.9,7.1,79,0.00,OVC,,0.00,WeatherDisplay:10.37,2013-02-19 23:48:00,
2013-02-19 18:53:00,57.9,51.4,30.09,SSE,158,5.8,5.8,79,0.00,OVC,,0.00,WeatherDisplay:10.37,2013-02-19 23:53:00,
2013-02-19 18:58:00,57.9,51.4,30.09,SSW,202,5.8,5.8,79,0.00,OVC,,0.00,WeatherDisplay:10.37,2013-02-19 23:58:00,
2013-02-19 19:03:00,57.7,51.3,30.09,West,270,6.9,6.9,79,0.00,BKN,,0.00,WeatherDisplay:10.37,2013-02-20 00:03:00,
2013-02-19 19:08:00,57.7,51.6,30.09,SSW,202,4.6,4.6,80,0.00,BKN,,0.00,WeatherDisplay:10.37,2013-02-20 00:08:00,
2013-02-19 19:13:00,57.7,51.6,30.09,SW,225,8.1,8.1,80,0.00,BKN,,0.00,WeatherDisplay:10.37,2013-02-20 00:13:00,
2013-02-19 19:18:00,57.9,51.8,30.09,SW,225,6.9,6.9,80,0.00,BKN,,0.00,WeatherDisplay:10.37,2013-02-20 00:18:00,
2013-02-19 19:23:00,57.9,51.8,30.09,SSW,202,8.1,8.1,80,0.00,BKN,,0.00,WeatherDisplay:10.37,2013-02-20 00:23:00,
2013-02-19 19:28:00,57.9,51.8,30.09,SSW,202,6.9,6.9,80,0.00,BKN,,0.00,WeatherDisplay:10.37,2013-02-20 00:28:00,
2013-02-19 19:33:00,57.9,51.8,30.09,SW,225,7.6,7.6,80,0.00,BKN,,0.00,WeatherDisplay:10.37,2013-02-20 00:33:00,
2013-02-19 19:38:00,57.9,51.8,30.10,South,180,8.1,8.1,80,0.00,BKN,,0.00,WeatherDisplay:10.37,2013-02-20 00:38:00,
2013-02-19 19:43:00,57.9,51.8,30.10,SW,225,6.4,6.4,80,0.00,BKN,,0.00,WeatherDisplay:10.37,2013-02-20 00:43:00,
2013-02-19 19:48:00,57.9,52.1,30.10,SSW,202,9.2,9.2,81,0.00,BKN,,0.00,WeatherDisplay:10.37,2013-02-20 00:48:00,
2013-02-19 19:53:00,57.9,52.1,30.10,WSW,248,5.8,8.5,81,0.00,BKN,,0.00,WeatherDisplay:10.37,2013-02-20 00:53:00,
2013-02-19 19:58:00,57.9,52.1,30.10,SW,225,11.5,11.5,81,0.00,BKN,,0.00,WeatherDisplay:10.37,2013-02-20 00:58:00,
2013-02-19 20:03:00,57.9,52.1,30.10,WSW,248,11.5,11.5,81,0.00,OVC,,0.00,WeatherDisplay:10.37,2013-02-20 01:03:00,
2013-02-19 20:08:00,57.9,52.1,30.09,SSW,202,6.9,6.9,81,0.00,OVC,,0.00,WeatherDisplay:10.37,2013-02-20 01:08:00,
2013-02-19 20:13:00,57.7,51.9,30.09,SW,225,8.1,8.1,81,0.00,OVC,,0.00,WeatherDisplay:10.37,2013-02-20 01:13:00,
2013-02-19 20:18:00,57.7,51.6,30.09,SSE,158,5.8,5.8,80,0.00,OVC,,0.00,WeatherDisplay:10.37,2013-02-20 01:18:00,
2013-02-19 20:23:00,57.6,51.8,30.09,SSW,202,6.2,6.2,81,0.00,OVC,,0.00,WeatherDisplay:10.37,2013-02-20 01:23:00,
2013-02-19 20:28:00,57.4,51.6,30.09,SW,225,7.6,7.6,81,0.00,OVC,,0.00,WeatherDisplay:10.37,2013-02-20 01:28:00,
2013-02-19 20:33:00,57.2,51.1,30.09,SW,225,10.4,10.4,80,0.00,OVC,,0.00,WeatherDisplay:10.37,2013-02-20 01:33:00,
2013-02-19 20:38:00,57.0,50.9,30.09,WSW,248,8.1,8.1,80,0.00,OVC,,0.00,WeatherDisplay:10.37,2013-02-20 01:38:00,
2013-02-19 20:43:00,56.8,50.7,30.09,SW,225,5.8,5.8,80,0.00,OVC,,0.00,WeatherDisplay:10.37,2013-02-20 01:43:00,
2013-02-19 20:48:00,56.7,50.9,30.10,SSW,202,4.7,4.7,81,0.00,OVC,,0.00,WeatherDisplay:10.37,2013-02-20 01:48:00,
2013-02-19 20:53:00,56.5,50.7,30.10,West,270,6.9,6.9,81,0.00,SCT,,0.00,WeatherDisplay:10.37,2013-02-20 01:53:00,
2013-02-19 20:58:00,56.1,50.4,30.10,WSW,248,5.8,5.8,81,0.00,SCT,,0.00,WeatherDisplay:10.37,2013-02-20 01:58:00,
2013-02-19 21:03:00,56.1,50.4,30.10,SSW,202,4.6,4.6,81,0.00,FEW,,0.00,WeatherDisplay:10.37,2013-02-20 02:03:00,
2013-02-19 21:08:00,55.9,50.2,30.10,SSW,202,6.9,6.9,81,0.00,FEW,,0.00,WeatherDisplay:10.37,2013-02-20 02:08:00,
2013-02-19 21:13:00,55.8,50.0,30.11,SW,225,5.8,5.8,81,0.00,FEW,,0.00,WeatherDisplay:10.37,2013-02-20 02:13:00,
2013-02-19 21:18:00,55.6,49.8,30.11,WNW,292,8.1,8.1,81,0.00,FEW,,0.00,WeatherDisplay:10.37,2013-02-20 02:18:00,
2013-02-19 21:23:00,55.4,49.3,30.11,NW,315,4.6,5.6,80,0.00,FEW,,0.00,WeatherDisplay:10.37,2013-02-20 02:23:00,
2013-02-19 21:28:00,55.2,49.2,30.12,WSW,248,6.9,6.9,80,0.00,FEW,,0.00,WeatherDisplay:10.37,2013-02-20 02:28:00,
2013-02-19 21:33:00,55.0,49.0,30.12,WSW,248,6.9,6.9,80,0.00,FEW,,0.00,WeatherDisplay:10.37,2013-02-20 02:33:00,
2013-02-19 21:38:00,54.9,48.5,30.12,West,270,9.9,9.9,79,0.00,FEW,,0.00,WeatherDisplay:10.37,2013-02-20 02:38:00,
2013-02-19 21:43:00,54.7,48.0,30.12,WSW,248,5.8,5.8,78,0.00,FEW,,0.00,WeatherDisplay:10.37,2013-02-20 02:43:00,
2013-02-19 21:49:00,54.5,48.1,30.13,SW,225,6.9,9.7,79,0.00,FEW,,0.00,WeatherDisplay:10.37,2013-02-20 02:49:00,
2013-02-19 21:54:00,54.3,47.3,30.13,WSW,248,9.2,10.2,77,0.00,FEW,,0.00,WeatherDisplay:10.37,2013-02-20 02:54:00,
2013-02-19 21:59:00,54.1,47.1,30.13,WSW,248,9.2,9.2,77,0.00,FEW,,0.00,WeatherDisplay:10.37,2013-02-20 02:59:00,
2013-02-19 22:04:00,54.0,46.9,30.13,SW,225,6.9,6.9,77,0.00,FEW,,0.00,WeatherDisplay:10.37,2013-02-20 03:04:00,
2013-02-19 22:09:00,53.8,46.7,30.13,West,270,8.7,8.7,77,0.00,FEW,,0.00,WeatherDisplay:10.37,2013-02-20 03:09:00,
2013-02-19 22:14:00,53.6,46.6,30.13,WNW,292,7.8,7.8,77,0.00,FEW,,0.00,WeatherDisplay:10.37,2013-02-20 03:14:00,
2013-02-19 22:19:00,53.4,46.4,30.13,West,270,8.1,8.1,77,0.00,FEW,,0.00,WeatherDisplay:10.37,2013-02-20 03:19:00,
2013-02-19 22:24:00,53.2,46.2,30.13,WSW,248,5.8,5.8,77,0.00,FEW,,0.00,WeatherDisplay:10.37,2013-02-20 03:24:00,
2013-02-19 22:29:00,52.9,45.9,30.13,WSW,248,4.6,4.6,77,0.00,FEW,,0.00,WeatherDisplay:10.37,2013-02-20 03:29:00,
2013-02-19 22:34:00,52.9,45.9,30.13,WSW,248,5.6,5.6,77,0.00,FEW,,0.00,WeatherDisplay:10.37,2013-02-20 03:34:00,
2013-02-19 22:39:00,52.7,46.0,30.13,WSW,248,4.6,4.6,78,0.00,FEW,,0.00,WeatherDisplay:10.37,2013-02-20 03:39:00,
2013-02-19 22:44:00,52.5,45.9,30.13,WSW,248,5.8,5.8,78,0.00,FEW,,0.00,WeatherDisplay:10.37,2013-02-20 03:44:00,
2013-02-19 22:49:00,52.3,45.7,30.13,West,270,5.8,5.8,78,0.00,FEW,,0.00,WeatherDisplay:10.37,2013-02-20 03:49:00,
2013-02-19 22:54:00,52.2,45.5,30.13,SSW,202,5.9,5.9,78,0.00,FEW,,0.00,WeatherDisplay:10.37,2013-02-20 03:54:00,
2013-02-19 22:59:00,52.0,45.3,30.13,West,270,4.6,4.6,78,0.00,FEW,,0.00,WeatherDisplay:10.37,2013-02-20 03:59:00,
2013-02-19 23:04:00,51.8,45.2,30.13,WSW,248,3.5,3.5,78,0.00,FEW,,0.00,WeatherDisplay:10.37,2013-02-20 04:04:00,
2013-02-19 23:09:00,51.8,45.2,30.13,West,270,3.5,3.5,78,0.00,FEW,,0.00,WeatherDisplay:10.37,2013-02-20 04:09:00,
2013-02-19 23:14:00,51.6,45.0,30.13,WSW,248,4.6,4.6,78,0.00,CLR,,0.00,WeatherDisplay:10.37,2013-02-20 04:14:00,
2013-02-19 23:19:00,51.4,44.8,30.13,SSW,202,3.5,3.5,78,0.00,CLR,,0.00,WeatherDisplay:10.37,2013-02-20 04:19:00,
2013-02-19 23:24:00,51.4,44.8,30.13,WSW,248,2.3,2.3,78,0.00,CLR,,0.00,WeatherDisplay:10.37,2013-02-20 04:24:00,
2013-02-19 23:29:00,51.3,44.6,30.13,WSW,248,3.5,3.5,78,0.00,CLR,,0.00,WeatherDisplay:10.37,2013-02-20 04:29:00,
2013-02-19 23:34:00,51.1,44.5,30.13,WSW,248,1.1,1.1,78,0.00,CLR,,0.00,WeatherDisplay:10.37,2013-02-20 04:34:00,
2013-02-19 23:39:00,50.9,44.3,30.13,WSW,248,2.3,2.3,78,0.00,CLR,,0.00,WeatherDisplay:10.37,2013-02-20 04:39:00,
2013-02-19 23:44:00,50.7,44.1,30.13,SW,225,1.6,1.6,78,0.00,CLR,,0.00,WeatherDisplay:10.37,2013-02-20 04:44:00,
2013-02-19 23:49:00,50.5,43.9,30.13,WSW,248,2.3,2.3,78,0.00,CLR,,0.00,WeatherDisplay:10.37,2013-02-20 04:49:00,
2013-02-19 23:54:00,50.4,44.1,30.13,WSW,248,1.6,1.6,79,0.00,CLR,,0.00,WeatherDisplay:10.37,2013-02-20 04:54:00,
2013-02-19 23:59:00,50.2,43.9,30.13,SSW,202,1.4,1.4,79,0.00,CLR,,0.00,WeatherDisplay:10.37,2013-02-20 04:59:00,